PWSweather.com
Personal Weather Stations
Station Observations
SMETHPA
Wilcat Hollow, Upper Marvin Creek, Smethport, PA 16749

Wilcat Hollow, Upper Marvin CreekSmethport, PA 16749

Lat: 41.7178, Lon: -78.5583

Elevation: 1644

Station Type: Davis Vantage Pro 2 Plus

http://www.mckeanweather.com

High Low Average
Temperature 57.9°F14.4°C 42.0°F5.6°C 50.3°F10.2°C
Dew Point 51.7°F10.9°C 38.7°F3.7°C 47.2°F8.4°C
Winds 6.0 mph 9.7 kmh Calm Calm 2.0 mph SSE3.2 kmh SSE
Wind Gusts 16.0 mph25.7 kmh 1.0 mph1.6 kmh 7.0 mph11.3 kmh
Humidity 96% 78% 89%
Pressure 30.03 in1016.9 mb 29.78 in1008.5 mb -
Precipitation 0.02 in0.5 mm - -
Hour Temp Dew Point Humidity Winds Wind Gusts Pressure Precip Precip Rate Daily Precip Total
12:00 AM 47.7°F8.7°C 46.1°F7.8°C 94% 1.0 mph N1.6 kmh N 4.0 mph6.4 kmh 30.05 in1017.6 mb 0.01 in0.3 mm 0.00 in0.0 mm 0.01 in0.3 mm
12:10 AM 47.7°F8.7°C 46.1°F7.8°C 94% Calm Calm 3.0 mph4.8 kmh 30.05 in1017.6 mb 0.01 in0.3 mm 0.00 in0.0 mm 0.01 in0.3 mm
12:20 AM 47.6°F8.7°C 46.0°F7.8°C 94% 1.0 mph N1.6 kmh N 5.0 mph8.0 kmh 30.05 in1017.6 mb 0.02 in0.5 mm 0.06 in1.5 mm 0.01 in0.3 mm
12:30 AM 47.6°F8.7°C 46.0°F7.8°C 94% 1.0 mph N1.6 kmh N 4.0 mph6.4 kmh 30.04 in1017.3 mb 0.02 in0.5 mm 0.00 in0.0 mm 0.01 in0.3 mm
12:40 AM 47.7°F8.7°C 46.3°F7.9°C 95% 1.0 mph N1.6 kmh N 6.0 mph9.7 kmh 30.04 in1017.3 mb 0.01 in0.3 mm 0.00 in0.0 mm 0.01 in0.3 mm
12:50 AM 47.8°F8.8°C 46.4°F8.0°C 95% 2.0 mph N3.2 kmh N 7.0 mph11.3 kmh 30.04 in1017.3 mb 0.01 in0.3 mm 0.00 in0.0 mm 0.01 in0.3 mm
01:00 AM 47.9°F8.8°C 46.5°F8.1°C 95% 3.0 mph NNE4.8 kmh NNE 7.0 mph11.3 kmh 30.03 in1016.9 mb 0.01 in0.3 mm 0.00 in0.0 mm 0.01 in0.3 mm
01:10 AM 47.9°F8.8°C 46.5°F8.1°C 95% 3.0 mph N4.8 kmh N 8.0 mph12.9 kmh 30.03 in1016.9 mb 0.01 in0.3 mm 0.00 in0.0 mm 0.01 in0.3 mm
01:20 AM 48.0°F8.9°C 46.6°F8.1°C 95% 3.0 mph NE4.8 kmh NE 9.0 mph14.5 kmh 30.02 in1016.6 mb 0.00 in0.0 mm 0.00 in0.0 mm 0.01 in0.3 mm
01:30 AM 48.1°F8.9°C 46.5°F8.1°C 94% 3.0 mph NE4.8 kmh NE 8.0 mph12.9 kmh 30.02 in1016.6 mb 0.00 in0.0 mm 0.00 in0.0 mm 0.01 in0.3 mm
01:40 AM 48.0°F8.9°C 46.4°F8.0°C 94% 2.0 mph NE3.2 kmh NE 5.0 mph8.0 kmh 30.01 in1016.3 mb 0.00 in0.0 mm 0.00 in0.0 mm 0.01 in0.3 mm
01:50 AM 48.0°F8.9°C 46.4°F8.0°C 94% 1.0 mph NNE1.6 kmh NNE 11.0 mph17.7 kmh 30.00 in1015.9 mb 0.00 in0.0 mm 0.00 in0.0 mm 0.01 in0.3 mm
02:00 AM 48.0°F8.9°C 46.4°F8.0°C 94% 2.0 mph N3.2 kmh N 3.0 mph4.8 kmh 30.00 in1015.9 mb 0.00 in0.0 mm 0.00 in0.0 mm 0.01 in0.3 mm
02:10 AM 48.1°F8.9°C 46.5°F8.1°C 94% 2.0 mph N3.2 kmh N 5.0 mph8.0 kmh 29.99 in1015.6 mb 0.00 in0.0 mm 0.00 in0.0 mm 0.01 in0.3 mm
02:20 AM 48.1°F8.9°C 46.5°F8.1°C 94% 1.0 mph N1.6 kmh N 4.0 mph6.4 kmh 29.99 in1015.6 mb 0.00 in0.0 mm 0.00 in0.0 mm 0.01 in0.3 mm
02:30 AM 48.1°F8.9°C 46.5°F8.1°C 94% 1.0 mph N1.6 kmh N 3.0 mph4.8 kmh 29.98 in1015.2 mb 0.00 in0.0 mm 0.00 in0.0 mm 0.01 in0.3 mm
02:40 AM 48.1°F8.9°C 46.5°F8.1°C 94% 1.0 mph N1.6 kmh N 4.0 mph6.4 kmh 29.98 in1015.2 mb 0.00 in0.0 mm 0.00 in0.0 mm 0.01 in0.3 mm
02:50 AM 48.0°F8.9°C 46.4°F8.0°C 94% Calm Calm 3.0 mph4.8 kmh 29.97 in1014.9 mb 0.00 in0.0 mm 0.00 in0.0 mm 0.01 in0.3 mm
03:00 AM 47.9°F8.8°C 46.3°F7.9°C 94% Calm Calm 4.0 mph6.4 kmh 29.97 in1014.9 mb 0.00 in0.0 mm 0.00 in0.0 mm 0.01 in0.3 mm
03:10 AM 47.9°F8.8°C 46.5°F8.1°C 95% 2.0 mph N3.2 kmh N 6.0 mph9.7 kmh 29.96 in1014.6 mb 0.00 in0.0 mm 0.00 in0.0 mm 0.01 in0.3 mm
03:20 AM 48.0°F8.9°C 46.6°F8.1°C 95% 1.0 mph NNE1.6 kmh NNE 5.0 mph8.0 kmh 29.96 in1014.6 mb 0.00 in0.0 mm 0.00 in0.0 mm 0.01 in0.3 mm
03:30 AM 48.1°F8.9°C 46.7°F8.2°C 95% 2.0 mph N3.2 kmh N 8.0 mph12.9 kmh 29.95 in1014.2 mb 0.00 in0.0 mm 0.00 in0.0 mm 0.01 in0.3 mm
03:40 AM 48.2°F9.0°C 46.6°F8.1°C 94% 2.0 mph N3.2 kmh N 7.0 mph11.3 kmh 29.95 in1014.2 mb 0.00 in0.0 mm 0.00 in0.0 mm 0.01 in0.3 mm
03:50 AM 48.3°F9.1°C 46.7°F8.2°C 94% 3.0 mph NNE4.8 kmh NNE 7.0 mph11.3 kmh 29.95 in1014.2 mb 0.00 in0.0 mm 0.00 in0.0 mm 0.01 in0.3 mm
04:00 AM 48.3°F9.1°C 46.7°F8.2°C 94% 2.0 mph N3.2 kmh N 4.0 mph6.4 kmh 29.95 in1014.2 mb 0.00 in0.0 mm 0.00 in0.0 mm 0.01 in0.3 mm
04:10 AM 48.3°F9.1°C 46.7°F8.2°C 94% 1.0 mph N1.6 kmh N 2.0 mph3.2 kmh 29.95 in1014.2 mb 0.00 in0.0 mm 0.00 in0.0 mm 0.01 in0.3 mm
04:20 AM 48.3°F9.1°C 46.7°F8.2°C 94% Calm Calm 5.0 mph8.0 kmh 29.94 in1013.9 mb 0.00 in0.0 mm 0.00 in0.0 mm 0.01 in0.3 mm
04:30 AM 48.2°F9.0°C 46.6°F8.1°C 94% 2.0 mph NNE3.2 kmh NNE 4.0 mph6.4 kmh 29.94 in1013.9 mb 0.00 in0.0 mm 0.00 in0.0 mm 0.01 in0.3 mm
04:40 AM 48.2°F9.0°C 46.6°F8.1°C 94% 2.0 mph NNE3.2 kmh NNE 4.0 mph6.4 kmh 29.94 in1013.9 mb 0.00 in0.0 mm 0.00 in0.0 mm 0.01 in0.3 mm
04:50 AM 48.2°F9.0°C 46.6°F8.1°C 94% 1.0 mph N1.6 kmh N 3.0 mph4.8 kmh 29.93 in1013.5 mb 0.00 in0.0 mm 0.00 in0.0 mm 0.01 in0.3 mm
05:00 AM 48.2°F9.0°C 46.6°F8.1°C 94% 1.0 mph N1.6 kmh N 4.0 mph6.4 kmh 29.93 in1013.5 mb 0.00 in0.0 mm 0.00 in0.0 mm 0.01 in0.3 mm
05:10 AM 48.1°F8.9°C 46.5°F8.1°C 94% 2.0 mph N3.2 kmh N 6.0 mph9.7 kmh 29.93 in1013.5 mb 0.00 in0.0 mm 0.00 in0.0 mm 0.01 in0.3 mm
05:20 AM 48.1°F8.9°C 46.5°F8.1°C 94% 3.0 mph N4.8 kmh N 6.0 mph9.7 kmh 29.92 in1013.2 mb 0.00 in0.0 mm 0.00 in0.0 mm 0.01 in0.3 mm
05:30 AM 48.1°F8.9°C 46.5°F8.1°C 94% 2.0 mph N3.2 kmh N 3.0 mph4.8 kmh 29.92 in1013.2 mb 0.00 in0.0 mm 0.00 in0.0 mm 0.01 in0.3 mm
05:40 AM 48.1°F8.9°C 46.7°F8.2°C 95% 1.0 mph N1.6 kmh N 4.0 mph6.4 kmh 29.92 in1013.2 mb 0.00 in0.0 mm 0.00 in0.0 mm 0.01 in0.3 mm
05:50 AM 48.1°F8.9°C 46.7°F8.2°C 95% 1.0 mph N1.6 kmh N 6.0 mph9.7 kmh 29.91 in1012.9 mb 0.00 in0.0 mm 0.00 in0.0 mm 0.01 in0.3 mm
06:00 AM 48.1°F8.9°C 46.7°F8.2°C 95% 1.0 mph N1.6 kmh N 3.0 mph4.8 kmh 29.91 in1012.9 mb 0.00 in0.0 mm 0.00 in0.0 mm 0.01 in0.3 mm
06:10 AM 48.1°F8.9°C 46.7°F8.2°C 95% 1.0 mph N1.6 kmh N 6.0 mph9.7 kmh 29.91 in1012.9 mb 0.00 in0.0 mm 0.00 in0.0 mm 0.01 in0.3 mm
06:20 AM 48.1°F8.9°C 46.7°F8.2°C 95% 1.0 mph N1.6 kmh N 2.0 mph3.2 kmh 29.91 in1012.9 mb 0.00 in0.0 mm 0.00 in0.0 mm 0.01 in0.3 mm
06:30 AM 48.1°F8.9°C 46.7°F8.2°C 95% Calm Calm 1.0 mph1.6 kmh 29.91 in1012.9 mb 0.00 in0.0 mm 0.00 in0.0 mm 0.01 in0.3 mm
06:40 AM 48.0°F8.9°C 46.6°F8.1°C 95% Calm Calm 3.0 mph4.8 kmh 29.91 in1012.9 mb 0.00 in0.0 mm 0.00 in0.0 mm 0.01 in0.3 mm
06:50 AM 48.0°F8.9°C 46.6°F8.1°C 95% 1.0 mph N1.6 kmh N 3.0 mph4.8 kmh 29.91 in1012.9 mb 0.00 in0.0 mm 0.00 in0.0 mm 0.01 in0.3 mm
07:00 AM 48.0°F8.9°C 46.6°F8.1°C 95% Calm Calm 3.0 mph4.8 kmh 29.91 in1012.9 mb 0.00 in0.0 mm 0.00 in0.0 mm 0.01 in0.3 mm
07:10 AM 48.1°F8.9°C 46.7°F8.2°C 95% Calm Calm 2.0 mph3.2 kmh 29.91 in1012.9 mb 0.00 in0.0 mm 0.00 in0.0 mm 0.01 in0.3 mm
07:20 AM 48.2°F9.0°C 46.8°F8.2°C 95% Calm Calm 3.0 mph4.8 kmh 29.91 in1012.9 mb 0.00 in0.0 mm 0.00 in0.0 mm 0.01 in0.3 mm
07:30 AM 48.3°F9.1°C 46.9°F8.3°C 95% Calm Calm 4.0 mph6.4 kmh 29.91 in1012.9 mb 0.00 in0.0 mm 0.00 in0.0 mm 0.01 in0.3 mm
07:40 AM 48.4°F9.1°C 47.3°F8.5°C 96% 1.0 mph N1.6 kmh N 4.0 mph6.4 kmh 29.91 in1012.9 mb 0.00 in0.0 mm 0.00 in0.0 mm 0.01 in0.3 mm
07:50 AM 48.6°F9.2°C 47.5°F8.6°C 96% 2.0 mph N3.2 kmh N 5.0 mph8.0 kmh 29.90 in1012.5 mb 0.00 in0.0 mm 0.00 in0.0 mm 0.01 in0.3 mm
08:00 AM 48.9°F9.4°C 47.5°F8.6°C 95% 1.0 mph N1.6 kmh N 5.0 mph8.0 kmh 29.90 in1012.5 mb 0.00 in0.0 mm 0.00 in0.0 mm 0.01 in0.3 mm
08:10 AM 49.3°F9.6°C 47.9°F8.8°C 95% 2.0 mph N3.2 kmh N 7.0 mph11.3 kmh 29.89 in1012.2 mb 0.00 in0.0 mm 0.00 in0.0 mm 0.01 in0.3 mm
08:20 AM 49.6°F9.8°C 48.2°F9.0°C 95% 2.0 mph N3.2 kmh N 6.0 mph9.7 kmh 29.89 in1012.2 mb 0.00 in0.0 mm 0.00 in0.0 mm 0.01 in0.3 mm
08:30 AM 49.6°F9.8°C 47.9°F8.8°C 94% 2.0 mph N3.2 kmh N 5.0 mph8.0 kmh 29.89 in1012.2 mb 0.00 in0.0 mm 0.00 in0.0 mm 0.01 in0.3 mm
08:40 AM 49.7°F9.8°C 48.0°F8.9°C 94% 1.0 mph N1.6 kmh N 3.0 mph4.8 kmh 29.89 in1012.2 mb 0.00 in0.0 mm 0.00 in0.0 mm 0.01 in0.3 mm
08:50 AM 49.9°F9.9°C 48.2°F9.0°C 94% 1.0 mph N1.6 kmh N 6.0 mph9.7 kmh 29.89 in1012.2 mb 0.00 in0.0 mm 0.00 in0.0 mm 0.01 in0.3 mm
09:00 AM 50.0°F10.0°C 48.1°F8.9°C 93% 3.0 mph NNE4.8 kmh NNE 6.0 mph9.7 kmh 29.89 in1012.2 mb 0.00 in0.0 mm 0.00 in0.0 mm 0.01 in0.3 mm
09:10 AM 50.1°F10.1°C 48.2°F9.0°C 93% 1.0 mph NNE1.6 kmh NNE 4.0 mph6.4 kmh 29.88 in1011.9 mb 0.00 in0.0 mm 0.00 in0.0 mm 0.01 in0.3 mm
09:20 AM 50.2°F10.1°C 48.3°F9.1°C 93% 2.0 mph NNE3.2 kmh NNE 5.0 mph8.0 kmh 29.88 in1011.9 mb 0.00 in0.0 mm 0.00 in0.0 mm 0.01 in0.3 mm
09:30 AM 50.4°F10.2°C 48.5°F9.2°C 93% 1.0 mph NNE1.6 kmh NNE 6.0 mph9.7 kmh 29.88 in1011.9 mb 0.00 in0.0 mm 0.00 in0.0 mm 0.01 in0.3 mm
09:40 AM 50.6°F10.3°C 48.7°F9.3°C 93% 2.0 mph NNE3.2 kmh NNE 5.0 mph8.0 kmh 29.87 in1011.5 mb 0.00 in0.0 mm 0.00 in0.0 mm 0.01 in0.3 mm
09:50 AM 50.7°F10.4°C 48.5°F9.2°C 92% 2.0 mph NE3.2 kmh NE 4.0 mph6.4 kmh 29.87 in1011.5 mb 0.00 in0.0 mm 0.00 in0.0 mm 0.01 in0.3 mm
10:00 AM 50.9°F10.5°C 48.7°F9.3°C 92% 1.0 mph NE1.6 kmh NE 4.0 mph6.4 kmh 29.86 in1011.2 mb 0.00 in0.0 mm 0.00 in0.0 mm 0.01 in0.3 mm
10:10 AM 51.7°F10.9°C 49.5°F9.7°C 92% 1.0 mph NE1.6 kmh NE 6.0 mph9.7 kmh 29.86 in1011.2 mb 0.00 in0.0 mm 0.00 in0.0 mm 0.01 in0.3 mm
10:20 AM 52.0°F11.1°C 49.7°F9.8°C 92% 3.0 mph NE4.8 kmh NE 5.0 mph8.0 kmh 29.86 in1011.2 mb 0.00 in0.0 mm 0.00 in0.0 mm 0.01 in0.3 mm
10:30 AM 52.3°F11.3°C 49.8°F9.9°C 91% 1.0 mph NE1.6 kmh NE 3.0 mph4.8 kmh 29.86 in1011.2 mb 0.00 in0.0 mm 0.00 in0.0 mm 0.01 in0.3 mm
10:40 AM 52.6°F11.4°C 49.8°F9.9°C 90% 1.0 mph NE1.6 kmh NE 4.0 mph6.4 kmh 29.86 in1011.2 mb 0.00 in0.0 mm 0.00 in0.0 mm 0.01 in0.3 mm
10:50 AM 53.5°F11.9°C 50.6°F10.3°C 90% 1.0 mph NE1.6 kmh NE 2.0 mph3.2 kmh 29.86 in1011.2 mb 0.00 in0.0 mm 0.00 in0.0 mm 0.01 in0.3 mm
11:00 AM 54.0°F12.2°C 50.5°F10.3°C 88% Calm Calm 3.0 mph4.8 kmh 29.85 in1010.8 mb 0.00 in0.0 mm 0.00 in0.0 mm 0.01 in0.3 mm
11:10 AM 54.5°F12.5°C 50.7°F10.4°C 87% 1.0 mph N1.6 kmh N 5.0 mph8.0 kmh 29.85 in1010.8 mb 0.00 in0.0 mm 0.00 in0.0 mm 0.01 in0.3 mm
11:20 AM 55.1°F12.8°C 51.0°F10.6°C 86% 2.0 mph N3.2 kmh N 4.0 mph6.4 kmh 29.85 in1010.8 mb 0.00 in0.0 mm 0.00 in0.0 mm 0.01 in0.3 mm
11:30 AM 55.6°F13.1°C 51.2°F10.7°C 85% 1.0 mph E1.6 kmh E 7.0 mph11.3 kmh 29.84 in1010.5 mb 0.00 in0.0 mm 0.00 in0.0 mm 0.01 in0.3 mm
11:40 AM 55.7°F13.2°C 51.3°F10.7°C 85% 2.0 mph SE3.2 kmh SE 3.0 mph4.8 kmh 29.85 in1010.8 mb 0.00 in0.0 mm 0.00 in0.0 mm 0.01 in0.3 mm
11:50 AM 55.4°F13.0°C 50.6°F10.3°C 84% 1.0 mph SE1.6 kmh SE 2.0 mph3.2 kmh 29.84 in1010.5 mb 0.00 in0.0 mm 0.00 in0.0 mm 0.01 in0.3 mm
12:00 PM 55.3°F12.9°C 50.5°F10.3°C 84% 1.0 mph SE1.6 kmh SE 3.0 mph4.8 kmh 29.84 in1010.5 mb 0.00 in0.0 mm 0.00 in0.0 mm 0.01 in0.3 mm
12:10 PM 55.5°F13.1°C 50.7°F10.4°C 84% 1.0 mph S1.6 kmh S 5.0 mph8.0 kmh 29.83 in1010.2 mb 0.00 in0.0 mm 0.00 in0.0 mm 0.01 in0.3 mm
12:20 PM 55.6°F13.1°C 50.8°F10.4°C 84% 1.0 mph SW1.6 kmh SW 3.0 mph4.8 kmh 29.83 in1010.2 mb 0.00 in0.0 mm 0.00 in0.0 mm 0.01 in0.3 mm
12:30 PM 55.9°F13.3°C 51.1°F10.6°C 84% 1.0 mph SW1.6 kmh SW 4.0 mph6.4 kmh 29.83 in1010.2 mb 0.00 in0.0 mm 0.00 in0.0 mm 0.01 in0.3 mm
12:40 PM 56.1°F13.4°C 51.7°F10.9°C 85% 2.0 mph SW3.2 kmh SW 6.0 mph9.7 kmh 29.83 in1010.2 mb 0.00 in0.0 mm 0.00 in0.0 mm 0.01 in0.3 mm
12:50 PM 56.1°F13.4°C 50.7°F10.4°C 82% 3.0 mph WSW4.8 kmh WSW 8.0 mph12.9 kmh 29.83 in1010.2 mb 0.00 in0.0 mm 0.00 in0.0 mm 0.01 in0.3 mm
01:00 PM 56.3°F13.5°C 51.2°F10.7°C 83% 3.0 mph WSW4.8 kmh WSW 6.0 mph9.7 kmh 29.82 in1009.8 mb 0.00 in0.0 mm 0.00 in0.0 mm 0.01 in0.3 mm
01:10 PM 57.5°F14.2°C 51.7°F10.9°C 81% 3.0 mph WSW4.8 kmh WSW 7.0 mph11.3 kmh 29.82 in1009.8 mb 0.00 in0.0 mm 0.00 in0.0 mm 0.01 in0.3 mm
01:20 PM 57.5°F14.2°C 51.4°F10.8°C 80% 3.0 mph W4.8 kmh W 8.0 mph12.9 kmh 29.81 in1009.5 mb 0.00 in0.0 mm 0.00 in0.0 mm 0.01 in0.3 mm
01:30 PM 57.5°F14.2°C 51.7°F10.9°C 81% 3.0 mph WNW4.8 kmh WNW 5.0 mph8.0 kmh 29.81 in1009.5 mb 0.00 in0.0 mm 0.00 in0.0 mm 0.01 in0.3 mm
01:40 PM 57.9°F14.4°C 51.4°F10.8°C 79% 2.0 mph WNW3.2 kmh WNW 7.0 mph11.3 kmh 29.80 in1009.1 mb 0.00 in0.0 mm 0.00 in0.0 mm 0.01 in0.3 mm
01:50 PM 57.8°F14.3°C 51.0°F10.6°C 78% 3.0 mph W4.8 kmh W 8.0 mph12.9 kmh 29.80 in1009.1 mb 0.00 in0.0 mm 0.00 in0.0 mm 0.01 in0.3 mm
02:00 PM 57.7°F14.3°C 50.9°F10.5°C 78% 3.0 mph W4.8 kmh W 7.0 mph11.3 kmh 29.80 in1009.1 mb 0.00 in0.0 mm 0.00 in0.0 mm 0.01 in0.3 mm
02:10 PM 57.4°F14.1°C 50.6°F10.3°C 78% 4.0 mph W6.4 kmh W 8.0 mph12.9 kmh 29.80 in1009.1 mb 0.00 in0.0 mm 0.00 in0.0 mm 0.01 in0.3 mm
02:20 PM 57.3°F14.1°C 50.8°F10.4°C 79% 3.0 mph W4.8 kmh W 6.0 mph9.7 kmh 29.80 in1009.1 mb 0.00 in0.0 mm 0.00 in0.0 mm 0.01 in0.3 mm
02:30 PM 57.2°F14.0°C 50.7°F10.4°C 79% 3.0 mph WSW4.8 kmh WSW 9.0 mph14.5 kmh 29.80 in1009.1 mb 0.00 in0.0 mm 0.00 in0.0 mm 0.01 in0.3 mm
02:40 PM 57.1°F13.9°C 51.0°F10.6°C 80% 3.0 mph WSW4.8 kmh WSW 7.0 mph11.3 kmh 29.79 in1008.8 mb 0.00 in0.0 mm 0.00 in0.0 mm 0.01 in0.3 mm
02:50 PM 56.9°F13.8°C 51.1°F10.6°C 81% 4.0 mph W6.4 kmh W 8.0 mph12.9 kmh 29.79 in1008.8 mb 0.00 in0.0 mm 0.00 in0.0 mm 0.01 in0.3 mm
03:00 PM 56.5°F13.6°C 51.1°F10.6°C 82% 4.0 mph W6.4 kmh W 10.0 mph16.1 kmh 29.79 in1008.8 mb 0.00 in0.0 mm 0.00 in0.0 mm 0.01 in0.3 mm
03:10 PM 56.3°F13.5°C 51.2°F10.7°C 83% 5.0 mph WSW8.0 kmh WSW 8.0 mph12.9 kmh 29.79 in1008.8 mb 0.00 in0.0 mm 0.00 in0.0 mm 0.01 in0.3 mm
03:20 PM 56.0°F13.3°C 50.6°F10.3°C 82% 4.0 mph WSW6.4 kmh WSW 10.0 mph16.1 kmh 29.79 in1008.8 mb 0.00 in0.0 mm 0.00 in0.0 mm 0.01 in0.3 mm
03:30 PM 55.8°F13.2°C 50.7°F10.4°C 83% 5.0 mph WSW8.0 kmh WSW 11.0 mph17.7 kmh 29.79 in1008.8 mb 0.00 in0.0 mm 0.00 in0.0 mm 0.01 in0.3 mm
03:40 PM 55.4°F13.0°C 50.3°F10.2°C 83% 5.0 mph WSW8.0 kmh WSW 10.0 mph16.1 kmh 29.79 in1008.8 mb 0.00 in0.0 mm 0.00 in0.0 mm 0.01 in0.3 mm
03:50 PM 55.0°F12.8°C 49.9°F9.9°C 83% 4.0 mph WSW6.4 kmh WSW 9.0 mph14.5 kmh 29.79 in1008.8 mb 0.00 in0.0 mm 0.00 in0.0 mm 0.01 in0.3 mm
04:00 PM 54.8°F12.7°C 50.1°F10.1°C 84% 3.0 mph SW4.8 kmh SW 6.0 mph9.7 kmh 29.79 in1008.8 mb 0.00 in0.0 mm 0.00 in0.0 mm 0.01 in0.3 mm
04:10 PM 54.7°F12.6°C 50.3°F10.2°C 85% 2.0 mph SW3.2 kmh SW 9.0 mph14.5 kmh 29.79 in1008.8 mb 0.00 in0.0 mm 0.00 in0.0 mm 0.01 in0.3 mm
04:20 PM 54.5°F12.5°C 50.4°F10.2°C 86% 3.0 mph W4.8 kmh W 9.0 mph14.5 kmh 29.79 in1008.8 mb 0.00 in0.0 mm 0.00 in0.0 mm 0.01 in0.3 mm
04:30 PM 54.1°F12.3°C 50.3°F10.2°C 87% 3.0 mph W4.8 kmh W 8.0 mph12.9 kmh 29.79 in1008.8 mb 0.01 in0.3 mm 0.06 in1.5 mm 0.02 in0.5 mm
04:40 PM 54.0°F12.2°C 50.8°F10.4°C 89% 2.0 mph WSW3.2 kmh WSW 4.0 mph6.4 kmh 29.78 in1008.5 mb 0.01 in0.3 mm 0.00 in0.0 mm 0.02 in0.5 mm
04:50 PM 54.2°F12.3°C 50.7°F10.4°C 88% 2.0 mph WSW3.2 kmh WSW 7.0 mph11.3 kmh 29.79 in1008.8 mb 0.01 in0.3 mm 0.00 in0.0 mm 0.02 in0.5 mm
05:00 PM 54.4°F12.4°C 50.6°F10.3°C 87% 2.0 mph W3.2 kmh W 8.0 mph12.9 kmh 29.79 in1008.8 mb 0.01 in0.3 mm 0.00 in0.0 mm 0.02 in0.5 mm
05:10 PM 55.1°F12.8°C 51.0°F10.6°C 86% 3.0 mph W4.8 kmh W 7.0 mph11.3 kmh 29.78 in1008.5 mb 0.01 in0.3 mm 0.00 in0.0 mm 0.02 in0.5 mm
05:20 PM 55.2°F12.9°C 50.8°F10.4°C 85% 3.0 mph WSW4.8 kmh WSW 13.0 mph20.9 kmh 29.79 in1008.8 mb 0.01 in0.3 mm 0.00 in0.0 mm 0.02 in0.5 mm
05:30 PM 54.4°F12.4°C 50.3°F10.2°C 86% 6.0 mph WSW9.7 kmh WSW 12.0 mph19.3 kmh 29.79 in1008.8 mb 0.00 in0.0 mm 0.00 in0.0 mm 0.02 in0.5 mm
05:40 PM 53.6°F12.0°C 50.1°F10.1°C 88% 4.0 mph WSW6.4 kmh WSW 10.0 mph16.1 kmh 29.79 in1008.8 mb 0.00 in0.0 mm 0.00 in0.0 mm 0.02 in0.5 mm
05:50 PM 53.2°F11.8°C 50.0°F10.0°C 89% 3.0 mph WSW4.8 kmh WSW 7.0 mph11.3 kmh 29.80 in1009.1 mb 0.00 in0.0 mm 0.00 in0.0 mm 0.02 in0.5 mm
06:00 PM 52.8°F11.6°C 49.9°F9.9°C 90% 2.0 mph W3.2 kmh W 8.0 mph12.9 kmh 29.80 in1009.1 mb 0.00 in0.0 mm 0.00 in0.0 mm 0.02 in0.5 mm
06:10 PM 52.6°F11.4°C 50.0°F10.0°C 91% 2.0 mph WSW3.2 kmh WSW 7.0 mph11.3 kmh 29.80 in1009.1 mb 0.00 in0.0 mm 0.00 in0.0 mm 0.02 in0.5 mm
06:20 PM 52.6°F11.4°C 50.0°F10.0°C 91% 3.0 mph SW4.8 kmh SW 8.0 mph12.9 kmh 29.79 in1008.8 mb 0.00 in0.0 mm 0.00 in0.0 mm 0.02 in0.5 mm
06:30 PM 52.6°F11.4°C 50.0°F10.0°C 91% 3.0 mph WSW4.8 kmh WSW 11.0 mph17.7 kmh 29.79 in1008.8 mb 0.00 in0.0 mm 0.00 in0.0 mm 0.02 in0.5 mm
06:40 PM 52.6°F11.4°C 49.8°F9.9°C 90% 4.0 mph WSW6.4 kmh WSW 8.0 mph12.9 kmh 29.80 in1009.1 mb 0.00 in0.0 mm 0.00 in0.0 mm 0.02 in0.5 mm
06:50 PM 52.3°F11.3°C 49.2°F9.6°C 89% 3.0 mph W4.8 kmh W 7.0 mph11.3 kmh 29.80 in1009.1 mb 0.00 in0.0 mm 0.00 in0.0 mm 0.02 in0.5 mm
07:00 PM 51.9°F11.1°C 48.5°F9.2°C 88% 3.0 mph SW4.8 kmh SW 9.0 mph14.5 kmh 29.80 in1009.1 mb 0.00 in0.0 mm 0.00 in0.0 mm 0.02 in0.5 mm
07:10 PM 51.5°F10.8°C 48.1°F8.9°C 88% 3.0 mph WSW4.8 kmh WSW 10.0 mph16.1 kmh 29.80 in1009.1 mb 0.00 in0.0 mm 0.00 in0.0 mm 0.02 in0.5 mm
07:20 PM 51.3°F10.7°C 48.2°F9.0°C 89% 2.0 mph WSW3.2 kmh WSW 12.0 mph19.3 kmh 29.80 in1009.1 mb 0.00 in0.0 mm 0.00 in0.0 mm 0.02 in0.5 mm
07:30 PM 51.0°F10.6°C 47.6°F8.7°C 88% 4.0 mph WSW6.4 kmh WSW 9.0 mph14.5 kmh 29.80 in1009.1 mb 0.00 in0.0 mm 0.00 in0.0 mm 0.02 in0.5 mm
07:40 PM 50.8°F10.4°C 47.7°F8.7°C 89% 4.0 mph WSW6.4 kmh WSW 9.0 mph14.5 kmh 29.81 in1009.5 mb 0.00 in0.0 mm 0.00 in0.0 mm 0.02 in0.5 mm
07:50 PM 50.4°F10.2°C 47.6°F8.7°C 90% 4.0 mph SW6.4 kmh SW 8.0 mph12.9 kmh 29.81 in1009.5 mb 0.00 in0.0 mm 0.00 in0.0 mm 0.02 in0.5 mm
08:00 PM 49.7°F9.8°C 47.2°F8.4°C 91% 3.0 mph WSW4.8 kmh WSW 11.0 mph17.7 kmh 29.82 in1009.8 mb 0.00 in0.0 mm 0.00 in0.0 mm 0.02 in0.5 mm
08:10 PM 49.1°F9.5°C 46.6°F8.1°C 91% 4.0 mph WSW6.4 kmh WSW 10.0 mph16.1 kmh 29.82 in1009.8 mb 0.00 in0.0 mm 0.00 in0.0 mm 0.02 in0.5 mm
08:20 PM 48.5°F9.2°C 46.0°F7.8°C 91% 4.0 mph WSW6.4 kmh WSW 12.0 mph19.3 kmh 29.83 in1010.2 mb 0.00 in0.0 mm 0.00 in0.0 mm 0.02 in0.5 mm
08:30 PM 48.1°F8.9°C 45.3°F7.4°C 90% 5.0 mph WSW8.0 kmh WSW 14.0 mph22.5 kmh 29.83 in1010.2 mb 0.00 in0.0 mm 0.00 in0.0 mm 0.02 in0.5 mm
08:40 PM 47.8°F8.8°C 45.0°F7.2°C 90% 5.0 mph WSW8.0 kmh WSW 13.0 mph20.9 kmh 29.83 in1010.2 mb 0.00 in0.0 mm 0.00 in0.0 mm 0.02 in0.5 mm
08:50 PM 47.4°F8.6°C 44.3°F6.8°C 89% 5.0 mph SW8.0 kmh SW 10.0 mph16.1 kmh 29.83 in1010.2 mb 0.00 in0.0 mm 0.00 in0.0 mm 0.02 in0.5 mm
09:00 PM 47.1°F8.4°C 43.7°F6.5°C 88% 4.0 mph WSW6.4 kmh WSW 11.0 mph17.7 kmh 29.84 in1010.5 mb 0.00 in0.0 mm 0.00 in0.0 mm 0.02 in0.5 mm
09:10 PM 46.8°F8.2°C 43.4°F6.3°C 88% 3.0 mph SW4.8 kmh SW 8.0 mph12.9 kmh 29.84 in1010.5 mb 0.00 in0.0 mm 0.00 in0.0 mm 0.02 in0.5 mm
09:20 PM 46.4°F8.0°C 42.7°F5.9°C 87% 4.0 mph WSW6.4 kmh WSW 12.0 mph19.3 kmh 29.84 in1010.5 mb 0.00 in0.0 mm 0.00 in0.0 mm 0.02 in0.5 mm
09:30 PM 46.0°F7.8°C 42.0°F5.6°C 86% 4.0 mph WSW6.4 kmh WSW 16.0 mph25.7 kmh 29.85 in1010.8 mb 0.00 in0.0 mm 0.00 in0.0 mm 0.02 in0.5 mm
09:40 PM 45.7°F7.6°C 41.8°F5.4°C 86% 5.0 mph WSW8.0 kmh WSW 12.0 mph19.3 kmh 29.86 in1011.2 mb 0.00 in0.0 mm 0.00 in0.0 mm 0.02 in0.5 mm
09:50 PM 45.3°F7.4°C 41.1°F5.1°C 85% 4.0 mph SW6.4 kmh SW 15.0 mph24.1 kmh 29.86 in1011.2 mb 0.00 in0.0 mm 0.00 in0.0 mm 0.02 in0.5 mm
10:00 PM 45.0°F7.2°C 40.8°F4.9°C 85% 5.0 mph WSW8.0 kmh WSW 12.0 mph19.3 kmh 29.86 in1011.2 mb 0.00 in0.0 mm 0.00 in0.0 mm 0.02 in0.5 mm
10:10 PM 44.8°F7.1°C 40.9°F4.9°C 86% 4.0 mph WSW6.4 kmh WSW 11.0 mph17.7 kmh 29.86 in1011.2 mb 0.00 in0.0 mm 0.00 in0.0 mm 0.02 in0.5 mm
10:20 PM 44.5°F6.9°C 40.9°F4.9°C 87% 4.0 mph WSW6.4 kmh WSW 8.0 mph12.9 kmh 29.86 in1011.2 mb 0.00 in0.0 mm 0.00 in0.0 mm 0.02 in0.5 mm
10:30 PM 44.3°F6.8°C 40.7°F4.8°C 87% 3.0 mph WSW4.8 kmh WSW 11.0 mph17.7 kmh 29.86 in1011.2 mb 0.00 in0.0 mm 0.00 in0.0 mm 0.02 in0.5 mm
10:40 PM 44.0°F6.7°C 40.7°F4.8°C 88% 4.0 mph WSW6.4 kmh WSW 11.0 mph17.7 kmh 29.86 in1011.2 mb 0.00 in0.0 mm 0.00 in0.0 mm 0.02 in0.5 mm
10:50 PM 43.8°F6.6°C 40.5°F4.7°C 88% 2.0 mph WSW3.2 kmh WSW 10.0 mph16.1 kmh 29.86 in1011.2 mb 0.00 in0.0 mm 0.00 in0.0 mm 0.02 in0.5 mm
11:00 PM 43.6°F6.4°C 40.6°F4.8°C 89% 4.0 mph WSW6.4 kmh WSW 13.0 mph20.9 kmh 29.86 in1011.2 mb 0.00 in0.0 mm 0.00 in0.0 mm 0.02 in0.5 mm
11:10 PM 43.3°F6.3°C 40.0°F4.4°C 88% 4.0 mph WSW6.4 kmh WSW 15.0 mph24.1 kmh 29.85 in1010.8 mb 0.00 in0.0 mm 0.00 in0.0 mm 0.02 in0.5 mm
11:20 PM 43.1°F6.2°C 39.8°F4.3°C 88% 4.0 mph WSW6.4 kmh WSW 10.0 mph16.1 kmh 29.85 in1010.8 mb 0.00 in0.0 mm 0.00 in0.0 mm 0.02 in0.5 mm
11:30 PM 43.0°F6.1°C 40.0°F4.4°C 89% 4.0 mph WSW6.4 kmh WSW 7.0 mph11.3 kmh 29.85 in1010.8 mb 0.00 in0.0 mm 0.00 in0.0 mm 0.02 in0.5 mm
11:40 PM 42.8°F6.0°C 39.8°F4.3°C 89% 4.0 mph WSW6.4 kmh WSW 11.0 mph17.7 kmh 29.85 in1010.8 mb 0.00 in0.0 mm 0.00 in0.0 mm 0.02 in0.5 mm
11:50 PM 42.8°F6.0°C 39.8°F4.3°C 89% 3.0 mph WSW4.8 kmh WSW 8.0 mph12.9 kmh 29.85 in1010.8 mb 0.00 in0.0 mm 0.00 in0.0 mm 0.02 in0.5 mm